TimeEST,TemperatureF,Dew PointF,Humidity,Sea Level PressureIn,VisibilityMPH,Wind Direction,Wind SpeedMPH,Gust SpeedMPH,PrecipitationIn,Events,Conditions,WindDirDegrees,DateUTC
12:51 AM,17.1,9.0,71,30.04,-9999.0,NE,15.0,27.6,N/A,,Unknown,40,2013-02-15 05:51:00
1:51 AM,17.1,9.0,71,30.04,-9999.0,NNE,24.2,-,N/A,,Unknown,30,2013-02-15 06:51:00
2:51 AM,16.0,8.1,71,30.05,-9999.0,NNE,20.7,26.5,N/A,,Unknown,30,2013-02-15 07:51:00
3:51 AM,15.1,8.1,74,30.06,-9999.0,NNE,19.6,28.8,N/A,,Unknown,30,2013-02-15 08:51:00
4:51 AM,16.0,8.1,71,30.07,-9999.0,North,18.4,28.8,N/A,,Unknown,10,2013-02-15 09:51:00
5:51 AM,15.1,8.1,74,30.09,-9999.0,North,20.7,28.8,N/A,,Unknown,10,2013-02-15 10:51:00
6:51 AM,15.1,8.1,74,30.09,-9999.0,NNE,20.7,28.8,N/A,,Unknown,30,2013-02-15 11:51:00
7:51 AM,14.0,8.1,77,30.10,-9999.0,North,23.0,28.8,N/A,,Unknown,10,2013-02-15 12:51:00
8:51 AM,14.0,7.0,74,30.13,-9999.0,North,23.0,-,N/A,,Unknown,10,2013-02-15 13:51:00
9:51 AM,12.9,8.1,81,30.13,-9999.0,North,23.0,28.8,N/A,,Unknown,10,2013-02-15 14:51:00
10:51 AM,12.9,8.1,81,30.15,-9999.0,NNE,21.9,26.5,N/A,,Unknown,20,2013-02-15 15:51:00
11:51 AM,12.9,8.1,81,30.16,-9999.0,NNE,21.9,-,N/A,,Unknown,20,2013-02-15 16:51:00
12:51 PM,12.0,7.0,80,30.16,-9999.0,North,20.7,25.3,N/A,,Unknown,10,2013-02-15 17:51:00
1:51 PM,12.0,7.0,80,30.16,-9999.0,NNE,16.1,-,N/A,,Unknown,30,2013-02-15 18:51:00
2:51 PM,12.0,3.9,70,30.17,-9999.0,North,15.0,21.9,N/A,,Unknown,10,2013-02-15 19:51:00
3:51 PM,12.0,3.9,70,30.17,-9999.0,NNE,13.8,21.9,N/A,,Unknown,20,2013-02-15 20:51:00
4:51 PM,12.0,5.0,73,30.18,-9999.0,NNE,17.3,21.9,N/A,,Unknown,20,2013-02-15 21:51:00
5:51 PM,12.9,5.0,71,30.19,-9999.0,North,16.1,-,N/A,,Unknown,360,2013-02-15 22:51:00
6:51 PM,12.9,6.1,74,30.20,-9999.0,North,17.3,-,N/A,,Unknown,360,2013-02-15 23:51:00
7:51 PM,15.1,3.9,61,30.19,-9999.0,NNE,15.0,20.7,N/A,,Unknown,20,2013-02-16 00:51:00
8:51 PM,15.1,7.0,70,30.19,-9999.0,NNE,11.5,20.7,N/A,,Unknown,30,2013-02-16 01:51:00
9:51 PM,15.1,9.0,77,30.19,-9999.0,NNE,13.8,21.9,N/A,,Unknown,30,2013-02-16 02:51:00
10:51 PM,15.1,10.0,80,30.17,-9999.0,NE,18.4,24.2,N/A,,Unknown,50,2013-02-16 03:51:00
11:51 PM,14.0,9.0,80,30.17,-9999.0,NE,20.7,25.3,N/A,,Unknown,50,2013-02-16 04:51:00